Location: Zagreb
(45.8000°N, 16.0000°E)
Time: 15:49:37
(UTC+02:00)

Tiros 1 despin weight - Pass Details

Date: 14 August 2022
Orbit: 590 x 639 km, 48.2° (Epoch: 23 September)

Event Time Altitude Azimuth Distance (km) Brightness Sun altitude
Rises 18:57:43 0° 280° (W) 2,822 ? 10.6°
Reaches altitude 10° 19:01:04 10° 254° (WSW) 1,914 ? 10.1°
Maximum altitude 19:03:09 13° 225° (SW) 1,706 ? 9.7°
Drops below altitude 10° 19:05:14 10° 196° (SSW) 1,910 ? 9.4°
Sets 19:08:35 0° 170° (S) 2,809 ? 8.8°
